Location: Caltech
(34.1382°N, 118.1253°W)
Time: 20:36:26
(UTC-08:00)

Cosmos 1833 Rocket - Visible Passes

Search period start: 02 December 2016 00:00
Search period end: 12 December 2016 00:00
Orbit: 831 x 841 km, 71.0° (Epoch: 02 December)

Date Brightness Start Highest point End Pass type
(mag) Time Alt. Az. Time Alt. Az. Time Alt. Az.
02 Dec 5.3 19:41:42 10° NNW 19:41:42 10° NNW 19:41:42 10° NNW visible
03 Dec 4.6 17:43:54 10° NNE 17:44:32 11° NE 17:44:32 11° NE visible
03 Dec 4.7 19:25:01 10° NNW 19:26:18 17° NNW 19:26:18 17° NNW visible
04 Dec 4.4 17:27:48 10° NE 17:29:17 11° NE 17:29:26 11° NE visible
04 Dec 3.9 19:08:20 10° NNW 19:11:14 32° NNW 19:11:14 32° NNW visible
05 Dec 2.6 18:51:40 10° NNW 18:56:48 72° NNE 18:56:48 72° NNE visible
06 Dec 2.5 18:35:01 10° NNW 18:40:40 73° ENE 18:44:19 22° SSE visible
06 Dec 5.5 20:22:01 10° WNW 20:23:49 12° W 20:25:37 10° WSW visible
07 Dec 2.6 18:18:21 10° NNW 18:23:59 67° ENE 18:29:33 10° SSE visible
07 Dec 5.5 20:04:45 10° WNW 20:07:13 13° W 20:09:38 10° SW visible
08 Dec 2.6 18:01:42 10° NNW 18:07:18 61° ENE 18:12:49 10° SSE visible
08 Dec 5.4 19:47:40 10° WNW 19:50:35 14° W 19:53:30 10° SW visible
09 Dec 2.7 17:45:04 10° NNW 17:50:36 55° ENE 17:56:06 10° SE visible
09 Dec 5.4 19:30:39 10° WNW 19:33:57 16° W 19:37:16 10° SW visible
10 Dec 2.8 17:28:26 10° N 17:33:55 50° ENE 17:39:20 10° SE visible
10 Dec 5.3 19:13:42 10° WNW 19:17:20 18° W 19:20:58 10° SW visible
11 Dec 2.9 17:11:49 10° N 17:17:14 46° ENE 17:22:35 10° SE visible
11 Dec 5.2 18:56:47 10° NW 19:00:43 20° W 19:04:37 10° SW visible
